Norwood, MA

1:40 AM EST on February 23, 2017 (GMT -0500)
Norwood Memorial

Weather History for KOWD - March, 2014

Change the Weather History Date:

Tuesday, March 18, 2014

  Actual Average Record
Temperature  
Mean Temperature 24 °F -  
Max Temperature 37 °F 42 °F 75 °F (2012)
Min Temperature 10 °F 26 °F 10 °F (2014)
Degree Days  
Heating Degree Days 42    
Moisture  
Dew Point 12 °F    
Average Humidity 61    
Maximum Humidity 92    
Minimum Humidity 34    
Precipitation  
Precipitation 0.00 in - - ()
Sea Level Pressure  
Sea Level Pressure 30.29 in    
Wind  
Wind Speed 3 mph (ENE)    
Max Wind Speed 10 mph    
Max Gust Speed -    
Visibility 10 miles    
Events      
Averages and records for this station are not official NWS values.
T = Trace of Precipitation, MM = Missing Value Source: NWS Daily Summary

Daily Weather History Graph

Daily Weather History Graph

Search for Another Location

Airport or City:

Trip Planner

Search our weather history database for the weather conditions in past years. The results will help you decide how hot, cold, wet, or windy it might be!

Date:

Astronomy

Mar. 18, 2014 Rise Set
Actual Time 6:51 AM EDT 6:54 PM EDT
Civil Twilight 6:23 AM EDT 7:22 PM EDT
Nautical Twilight 5:50 AM EDT 7:55 PM EDT
Astronomical Twilight 5:17 AM EDT 8:28 PM EDT
Moon 9:11 PM EDT (3/18) 7:36 AM EDT (3/18)
Length of Visible Light 12h 58m
Length of Day
12h 03m
Waning Gibbous, 96% of the Moon is Illuminated
Mar 18
Waning Gibbous
Mar 23
Last Quarter
Mar 30
New
Apr 7
First Quarter
Apr 15
Full

Hourly Weather History & Observations

Time (EDT) Temp. Windchill Dew Point Humidity Pressure Visibility Wind Dir Wind Speed Gust Speed Precip Events Conditions
12:53 AM 15.1 °F - 9.0 °F 77% 30.17 in 10.0 mi Calm Calm - N/A   Clear
1:53 AM 14.0 °F - 10.0 °F 84% 30.20 in 10.0 mi Calm Calm - N/A   Clear
2:53 AM 12.0 °F 5.9 °F 10.0 °F 92% 30.20 in 10.0 mi South 3.5 mph - N/A   Clear
3:53 AM 10.9 °F - 9.0 °F 92% 30.21 in 10.0 mi Calm Calm - N/A   Clear
4:53 AM 12.9 °F - 9.0 °F 84% 30.23 in 10.0 mi Calm Calm - N/A   Clear
5:53 AM 12.0 °F - 9.0 °F 88% 30.25 in 10.0 mi Calm Calm - N/A   Clear
6:53 AM 16.0 °F - 5.0 °F 62% 30.26 in 10.0 mi Calm Calm - N/A   Clear
7:53 AM 19.9 °F 11.1 °F 5.0 °F 52% 30.28 in 10.0 mi North 6.9 mph - N/A   Clear
8:53 AM 25.0 °F 17.1 °F 8.1 °F 49% 30.31 in 10.0 mi North 6.9 mph - N/A   Clear
9:53 AM 30.0 °F 21.7 °F 14.0 °F 51% 30.35 in 10.0 mi ENE 9.2 mph - N/A   Clear
10:53 AM 32.0 °F 23.6 °F 16.0 °F 52% 30.33 in 10.0 mi NE 10.4 mph - N/A   Clear
11:53 AM 34.0 °F 26.6 °F 15.1 °F 46% 30.32 in 10.0 mi North 9.2 mph - N/A   Clear
12:53 PM 35.1 °F 30.1 °F 14.0 °F 42% 30.31 in 10.0 mi Variable 5.8 mph - N/A   Clear
1:53 PM 35.1 °F 29.3 °F 12.9 °F 40% 30.31 in 10.0 mi NE 6.9 mph - N/A   Clear
2:53 PM 36.0 °F 30.3 °F 10.0 °F 34% 30.31 in 10.0 mi NE 6.9 mph - N/A   Clear
3:53 PM 37.0 °F 33.3 °F 12.0 °F 36% 30.31 in 10.0 mi Variable 4.6 mph - N/A   Clear
4:53 PM 37.0 °F 34.5 °F 10.9 °F 34% 30.32 in 10.0 mi Variable 3.5 mph - N/A   Clear
5:53 PM 36.0 °F 29.6 °F 12.9 °F 39% 30.32 in 10.0 mi East 8.1 mph - N/A   Clear
6:53 PM 33.1 °F 28.7 °F 15.1 °F 48% 30.33 in 10.0 mi ENE 4.6 mph - N/A   Clear
7:53 PM 30.0 °F 24.1 °F 16.0 °F 56% 30.34 in 10.0 mi ESE 5.8 mph - N/A   Clear
8:53 PM 28.0 °F 24.2 °F 17.1 °F 63% 30.35 in 10.0 mi ESE 3.5 mph - N/A   Clear
9:53 PM 26.1 °F - 18.0 °F 71% 30.36 in 10.0 mi Calm Calm - N/A   Clear
10:53 PM 23.0 °F - 18.0 °F 81% 30.36 in 10.0 mi Calm Calm - N/A   Clear
11:53 PM 21.0 °F - 18.0 °F 88% 30.35 in 10.0 mi Calm Calm - N/A   Clear